Location: Heidgraben
(53.7081°N, 9.6576°E)
Time: 23:41:29
(UTC+00:00)

Cosmos 2333 Rocket - Pass Details

Date: 01 November 2020
Orbit: 841 x 861 km, 70.8° (Epoch: 28 November)

Event Time Altitude Azimuth Distance (km) Brightness Sun altitude
Exits shadow 03:21:20 11° 340° (NNW) 2,429 4.5 -26.9°
Maximum altitude 03:25:34 23° 30° (NNE) 1,751 4.2 -26.3°
Drops below altitude 10° 03:29:57 10° 81° (E) 2,468 5.7 -25.7°
Sets 03:32:57 0° 96° (E) 3,398 6.6 -25.2°
